Total_Precipitation_Accumulation
1.66 1.89 2.07 2.29 2.53 2.75 2.91 3.13 3.37 3.73 4.00 4.36 4.67 4.88 5.06 5.27 5.32 5.24 5.19 5.15 5.13 5.26 5.34 5.09 5.06 4.98 4.85 4.63 4.56 4.44 4.22 3.98 3.97 3.83 3.35 2.73 2.34 2.26 2.16 2.22 2.46 2.49 2.38
1.66 2.03 2.35 2.79 3.02 3.14 3.20 3.41 3.73 4.05 4.24 4.61 5.12 5.60 5.77 5.85 5.83 5.76 5.89 5.93 5.93 6.08 6.11 6.09 5.87 5.68 5.42 4.93 4.57 4.43 4.20 3.83 3.96 3.98 3.89 3.17 2.65 2.15 1.75 1.86 1.94 2.05 2.27
1.91 2.17 2.55 2.88 3.01 3.13 3.25 3.41 3.87 4.32 4.78 5.25 5.81 6.28 6.54 6.53 6.38 6.05 6.11 6.22 6.11 6.19 6.33 6.30 6.10 5.79 5.25 4.69 4.53 4.48 4.30 4.04 3.97 3.87 4.04 3.50 2.95 2.48 1.98 1.72 1.64 1.77 1.90
1.87 2.20 2.43 2.72 2.87 3.00 3.24 3.45 3.86 4.51 5.02 5.37 6.00 6.61 6.87 7.07 7.14 6.89 6.55 6.33 6.07 5.93 5.86 5.70 5.30 4.95 4.60 4.30 4.16 4.22 4.08 4.06 3.88 3.78 3.48 3.26 2.99 2.72 2.30 1.85 1.64 1.68 1.73
1.67 2.02 2.17 2.44 2.77 2.88 2.99 3.25 3.80 4.41 5.11 5.72 6.21 6.76 7.19 7.42 7.39 6.96 6.49 5.95 5.56 5.11 4.72 4.40 4.19 4.12 3.96 3.75 3.63 3.63 3.54 3.38 3.28 3.26 3.21 3.16 2.92 2.59 2.38 2.08 1.87 1.85 1.70
1.49 1.65 1.83 2.08 2.42 2.53 2.75 3.06 3.52 4.25 4.95 5.54 6.09 6.57 6.92 6.98 6.69 6.17 5.62 5.26 4.86 4.36 3.84 3.56 3.36 3.25 3.10 2.91 2.80 2.78 2.80 2.89 2.94 3.01 3.00 2.94 2.88 2.68 2.61 2.43 2.19 2.08 1.96
1.36 1.57 1.68 1.87 2.08 2.26 2.53 2.88 3.44 4.11 4.53 4.98 5.47 5.81 6.01 6.09 6.03 5.70 5.22 4.85 4.39 3.94 3.46 3.02 2.80 2.58 2.39 2.28 2.29 2.27 2.25 2.36 2.50 2.61 2.67 2.65 2.58 2.54 2.62 2.72 2.47 2.24 2.09
1.46 1.67 1.81 1.95 2.10 2.22 2.42 2.78 3.21 3.69 3.92 4.12 4.54 4.87 4.98 5.02 4.88 4.63 4.23 3.92 3.60 3.32 3.02 2.57 2.22 2.01 1.87 1.76 1.86 1.88 1.91 1.98 2.08 2.15 2.36 2.37 2.30 2.41 2.52 2.65 2.75 2.63 2.29
1.48 1.69 1.87 2.00 2.09 2.11 2.29 2.48 2.75 2.98 3.22 3.40 3.61 3.77 3.78 3.70 3.59 3.36 3.09 2.87 2.67 2.40 2.26 2.06 1.87 1.75 1.70 1.69 1.72 1.70 1.69 1.79 1.88 1.94 2.10 2.23 2.21 2.28 2.34 2.49 2.62 2.69 2.50
1.50 1.67 1.77 1.85 1.89 1.81 1.92 2.06 2.30 2.43 2.59 2.70 2.74 2.67 2.68 2.62 2.48 2.29 2.19 2.04 1.86 1.73 1.71 1.67 1.67 1.63 1.57 1.63 1.69 1.61 1.59 1.70 1.72 1.72 1.82 1.93 1.98 2.09 2.18 2.31 2.42 2.49 2.46
1.43 1.48 1.54 1.59 1.59 1.52 1.53 1.64 1.83 2.04 2.16 2.15 2.19 2.15 2.07 1.91 1.80 1.68 1.62 1.55 1.48 1.47 1.47 1.49 1.52 1.53 1.52 1.54 1.55 1.48 1.48 1.54 1.69 1.78 1.83 1.85 1.88 1.96 1.96 1.99 2.06 2.19 2.34
1.41 1.34 1.34 1.36 1.36 1.33 1.32 1.40 1.49 1.59 1.63 1.71 1.72 1.71 1.64 1.55 1.47 1.40 1.36 1.38 1.38 1.37 1.39 1.41 1.40 1.45 1.54 1.58 1.51 1.41 1.38 1.48 1.60 1.70 1.78 1.75 1.70 1.76 1.84 1.90 1.90 1.94 2.07
1.45 1.41 1.37 1.29 1.32 1.43 1.43 1.33 1.37 1.39 1.38 1.43 1.43 1.43 1.47 1.45 1.39 1.39 1.42 1.40 1.37 1.36 1.33 1.28 1.32 1.38 1.43 1.44 1.40 1.33 1.30 1.33 1.40 1.48 1.51 1.52 1.53 1.49 1.51 1.58 1.66 1.66 1.68
1.44 1.49 1.55 1.50 1.41 1.43 1.58 1.48 1.37 1.33 1.38 1.35 1.32 1.26 1.24 1.29 1.31 1.31 1.32 1.27 1.25 1.29 1.33 1.30 1.25 1.24 1.17 1.10 1.08 1.07 1.11 1.12 1.13 1.17 1.19 1.24 1.33 1.34 1.38 1.36 1.43 1.48 1.61
1.60 1.59 1.55 1.54 1.47 1.44 1.55 1.51 1.39 1.31 1.51 1.49 1.44 1.34 1.24 1.24 1.28 1.26 1.21 1.15 1.11 1.06 1.12 1.16 1.10 0.99 0.86 0.76 0.77 0.83 0.86 0.93 0.94 0.96 0.94 0.93 1.07 1.17 1.16 1.07 1.19 1.36 1.52
1.80 1.77 1.70 1.70 1.70 1.62 1.62 1.58 1.51 1.46 1.57 1.63 1.70 1.69 1.55 1.48 1.44 1.32 1.20 1.19 1.18 1.11 1.03 0.99 0.98 0.88 0.68 0.68 0.65 0.72 0.86 0.95 0.93 0.95 0.95 0.88 0.91 0.94 0.90 0.87 1.00 1.22 1.29
2.06 2.02 1.96 1.90 1.90 1.86 1.78 1.73 1.65 1.60 1.62 1.67 1.71 1.71 1.66 1.60 1.54 1.36 1.23 1.24 1.24 1.21 1.17 1.05 1.00 0.98 0.88 0.73 0.59 0.62 0.78 0.91 0.93 0.94 0.94 0.81 0.75 0.83 0.85 0.85 0.87 0.95 0.97
2.03 2.04 2.10 2.05 2.02 1.89 1.79 1.71 1.65 1.66 1.71 1.72 1.70 1.65 1.54 1.51 1.44 1.34 1.31 1.29 1.24 1.20 1.14 1.07 0.99 0.92 0.74 0.58 0.51 0.53 0.66 0.84 0.89 0.89 0.90 0.91 0.84 0.78 0.79 0.80 0.85 0.92 0.97
2.14 2.11 2.07 1.98 1.95 1.91 1.80 1.72 1.71 1.71 1.72 1.70 1.60 1.50 1.40 1.38 1.31 1.28 1.21 1.16 1.13 1.11 1.03 0.92 0.88 0.87 0.74 0.51 0.43 0.49 0.67 0.84 0.85 0.81 0.74 0.79 0.81 0.78 0.73 0.80 0.95 1.02 1.05
1.95 1.87 1.71 1.61 1.74 1.84 1.79 1.72 1.68 1.66 1.65 1.46 1.27 1.19 1.19 1.19 1.13 1.07 1.03 1.00 1.00 0.99 0.90 0.79 0.81 0.82 0.79 0.63 0.52 0.54 0.64 0.80 0.79 0.80 0.76 0.70 0.69 0.69 0.70 0.80 0.95 1.03 1.03
1.47 1.42 1.37 1.42 1.52 1.58 1.58 1.60 1.53 1.51 1.42 1.30 1.20 1.14 1.08 1.02 0.99 0.98 0.99 0.94 0.89 0.92 0.93 0.90 0.84 0.77 0.68 0.55 0.47 0.48 0.50 0.64 0.71 0.73 0.80 0.75 0.65 0.61 0.63 0.75 0.82 0.88 0.88
1.12 1.09 1.16 1.25 1.29 1.24 1.25 1.36 1.38 1.30 1.21 1.21 1.17 1.18 1.08 0.91 0.90 1.03 0.99 0.96 0.97 0.98 0.93 0.89 0.82 0.69 0.60 0.48 0.41 0.41 0.45 0.52 0.66 0.76 0.77 0.71 0.64 0.59 0.62 0.68 0.73 0.76 0.88
0.92 0.94 0.95 1.01 1.11 1.15 1.16 1.22 1.21 1.11 1.12 1.21 1.19 1.09 0.98 1.01 0.99 1.02 0.99 0.93 0.92 0.85 0.76 0.73 0.72 0.65 0.57 0.48 0.39 0.42 0.48 0.54 0.61 0.67 0.64 0.59 0.60 0.61 0.72 0.76 0.76 0.86 1.09
0.78 0.86 0.90 0.89 0.95 0.96 0.99 1.07 1.01 1.01 1.16 1.29 1.24 1.11 1.00 0.95 0.95 0.95 0.87 0.81 0.78 0.75 0.71 0.67 0.64 0.60 0.57 0.52 0.49 0.50 0.50 0.53 0.59 0.61 0.61 0.65 0.69 0.74 0.84 0.95 1.05 1.09 1.16
0.79 0.85 0.90 0.91 0.84 0.81 0.83 0.81 0.84 0.98 1.22 1.21 1.10 0.98 0.84 0.79 0.81 0.77 0.70 0.65 0.62 0.57 0.56 0.54 0.52 0.56 0.55 0.48 0.47 0.46 0.46 0.49 0.52 0.54 0.70 0.90 0.95 1.03 1.10 1.14 1.18 1.22 1.15
0.72 0.83 0.82 0.79 0.79 0.83 0.83 0.76 0.75 0.87 1.08 1.10 0.92 0.77 0.68 0.61 0.54 0.54 0.56 0.48 0.44 0.42 0.39 0.40 0.40 0.39 0.38 0.36 0.35 0.37 0.40 0.43 0.49 0.55 0.78 0.90 0.97 1.05 1.08 1.08 1.11 1.15 1.17